When you browse on this site, cookies collect data to enhance your experience and personalize the content and advertising you see.
Visit our Privacy Policy to learn more. By continuing to use the site, you agree to this use of cookies and data.
  • In Schweiz
  • Länderverzeichnis
  • Für 7 Tage
  • Wassertemperatur
  • Wetterkarte
  • Widgets
  • user-avatar
    Anmelden

    Stündliche Wetter Lorca

    Heute, 26 Januar, Sonntag

    Zeit Temperatur Niederschläge Wind Luftdruck Luftfeuchtigkeit
    00:00 +9°C° 0 mm 1 m/S 732 mmHg 87%
    01:00 +8°C° 0 mm 1 m/S 732 mmHg 87%
    02:00 +8°C° 0 mm 1 m/S 732 mmHg 86%
    03:00 +8°C° 0 mm 1 m/S 731 mmHg 85%
    04:00 +8°C° 0 mm 1 m/S 732 mmHg 85%
    05:00 +8°C° 0 mm 1 m/S 732 mmHg 84%
    06:00 +7°C° 0 mm 2 m/S 733 mmHg 83%
    07:00 +8°C° 0 mm 2 m/S 733 mmHg 80%
    08:00 +9°C° 0 mm 2 m/S 734 mmHg 77%
    09:00 +10°C° 0 mm 2 m/S 734 mmHg 73%
    10:00 +12°C° 0 mm 2 m/S 735 mmHg 68%
    11:00 +13°C° 0 mm 2 m/S 735 mmHg 62%
    12:00 +15°C° 0 mm 2 m/S 735 mmHg 55%
    13:00 +15°C° 0 mm 2 m/S 735 mmHg 54%
    14:00 +14°C° 0 mm 3 m/S 735 mmHg 53%
    15:00 +14°C° 0 mm 3 m/S 735 mmHg 51%
    16:00 +14°C° 0 mm 2 m/S 735 mmHg 58%
    17:00 +12°C° 0 mm 2 m/S 735 mmHg 65%
    18:00 +10°C° 0 mm 1 m/S 735 mmHg 72%
    19:00 +10°C° 0 mm 1 m/S 736 mmHg 73%
    20:00 +9°C° 0 mm 1 m/S 736 mmHg 75%
    21:00 +9°C° 0 mm 1 m/S 737 mmHg 76%
    22:00 +8°C° 0 mm 1 m/S 737 mmHg 76%
    23:00 +8°C° 0 mm 1 m/S 737 mmHg 75%

    Morgen, 27 Januar, Montag

    Zeit Temperatur Niederschläge Wind Luftdruck Luftfeuchtigkeit
    00:00 +8°C° 0 mm 1 m/S 737 mmHg 75%
    01:00 +6°C° 0 mm 2 m/S 737 mmHg 75%
    02:00 +6°C° 0 mm 2 m/S 736 mmHg 75%
    03:00 +6°C° 0 mm 2 m/S 736 mmHg 76%
    04:00 +6°C° 0 mm 2 m/S 736 mmHg 76%
    05:00 +5°C° 0 mm 2 m/S 736 mmHg 77%
    06:00 +5°C° 0 mm 2 m/S 736 mmHg 77%
    07:00 +6°C° 0 mm 2 m/S 736 mmHg 73%
    08:00 +7°C° 0 mm 2 m/S 737 mmHg 68%
    09:00 +10°C° 0 mm 1 m/S 737 mmHg 64%
    10:00 +11°C° 0 mm 1 m/S 737 mmHg 58%
    11:00 +12°C° 0 mm 1 m/S 737 mmHg 53%
    12:00 +14°C° 0 mm 1 m/S 736 mmHg 48%
    13:00 +14°C° 0 mm 1 m/S 736 mmHg 46%
    14:00 +15°C° 0 mm 1 m/S 736 mmHg 45%
    15:00 +15°C° 0 mm 2 m/S 735 mmHg 44%
    16:00 +14°C° 0 mm 2 m/S 735 mmHg 53%
    17:00 +12°C° 0 mm 1 m/S 735 mmHg 62%
    18:00 +10°C° 0 mm 1 m/S 735 mmHg 71%
    19:00 +10°C° 0 mm 1 m/S 735 mmHg 71%
    20:00 +10°C° 0 mm 1 m/S 736 mmHg 71%
    21:00 +9°C° 0 mm 2 m/S 736 mmHg 70%
    22:00 +9°C° 0 mm 2 m/S 736 mmHg 70%
    23:00 +8°C° 0 mm 2 m/S 736 mmHg 69%

    übermorgen, 28 Januar, Dienstag

    Zeit Temperatur Niederschläge Wind Luftdruck Luftfeuchtigkeit
    00:00 +8°C° 0 mm 2 m/S 736 mmHg 68%
    01:00 +8°C° 0 mm 2 m/S 736 mmHg 68%
    02:00 +8°C° 0 mm 2 m/S 736 mmHg 69%
    03:00 +8°C° 0 mm 2 m/S 736 mmHg 69%
    04:00 +8°C° 0 mm 2 m/S 736 mmHg 71%
    05:00 +8°C° 0 mm 2 m/S 736 mmHg 73%
    06:00 +7°C° 0 mm 2 m/S 736 mmHg 75%
    07:00 +9°C° 0 mm 2 m/S 736 mmHg 72%
    08:00 +10°C° 0 mm 2 m/S 737 mmHg 68%
    09:00 +12°C° 0 mm 2 m/S 737 mmHg 65%
    10:00 +14°C° 0 mm 1 m/S 737 mmHg 61%
    11:00 +15°C° 0 mm 1 m/S 737 mmHg 56%
    12:00 +18°C° 0 mm 1 m/S 737 mmHg 51%
    13:00 +18°C° 0 mm 1 m/S 736 mmHg 51%
    14:00 +19°C° 0 mm 1 m/S 736 mmHg 50%
    15:00 +19°C° 0 mm 1 m/S 735 mmHg 50%
    16:00 +16°C° 0 mm 1 m/S 735 mmHg 57%
    17:00 +15°C° 0 mm 1 m/S 735 mmHg 65%
    18:00 +13°C° 0 mm 1 m/S 735 mmHg 72%
    19:00 +13°C° 0 mm 1 m/S 736 mmHg 72%
    20:00 +13°C° 0 mm 1 m/S 736 mmHg 73%
    21:00 +12°C° 0 mm 1 m/S 736 mmHg 74%
    22:00 +12°C° 0 mm 1 m/S 736 mmHg 75%
    23:00 +12°C° 0 mm 1 m/S 736 mmHg 76%

    29 Januar, Mittwoch

    Zeit Temperatur Niederschläge Wind Luftdruck Luftfeuchtigkeit
    00:00 +11°C° 0 mm 1 m/S 736 mmHg 77%
    01:00 +11°C° 0 mm 1 m/S 735 mmHg 77%
    02:00 +11°C° 0 mm 1 m/S 735 mmHg 78%
    03:00 +11°C° 0 mm 1 m/S 735 mmHg 79%
    04:00 +11°C° 0 mm 1 m/S 735 mmHg 79%
    05:00 +10°C° 0 mm 1 m/S 734 mmHg 79%
    06:00 +10°C° 0 mm 1 m/S 734 mmHg 79%
    07:00 +12°C° 0 mm 1 m/S 735 mmHg 74%
    08:00 +13°C° 0 mm 1 m/S 735 mmHg 68%
    09:00 +15°C° 0 mm 1 m/S 736 mmHg 63%
    10:00 +16°C° 0 mm 1 m/S 736 mmHg 58%
    11:00 +18°C° 0 mm 1 m/S 736 mmHg 53%
    12:00 +19°C° 0 mm 1 m/S 736 mmHg 48%
    13:00 +20°C° 0 mm 1 m/S 736 mmHg 47%
    14:00 +20°C° 0 mm 1 m/S 735 mmHg 47%
    15:00 +19°C° 0 mm 2 m/S 735 mmHg 46%
    16:00 +18°C° 0 mm 1 m/S 735 mmHg 55%
    17:00 +15°C° 0 mm 1 m/S 735 mmHg 63%
    18:00 +13°C° 0 mm 0 m/S 735 mmHg 71%
    19:00 +13°C° 0 mm 0 m/S 735 mmHg 71%
    20:00 +12°C° 0 mm 0 m/S 736 mmHg 70%
    21:00 +13°C° 0 mm 1 m/S 736 mmHg 70%
    22:00 +13°C° 0 mm 1 m/S 736 mmHg 69%
    23:00 +12°C° 0 mm 1 m/S 736 mmHg 68%

    30 Januar, Donnerstag

    Zeit Temperatur Niederschläge Wind Luftdruck Luftfeuchtigkeit
    00:00 +12°C° 0 mm 1 m/S 735 mmHg 67%
    01:00 +12°C° 0 mm 1 m/S 735 mmHg 67%
    02:00 +11°C° 0 mm 1 m/S 735 mmHg 66%
    03:00 +11°C° 0 mm 1 m/S 735 mmHg 65%
    04:00 +11°C° 0 mm 1 m/S 735 mmHg 64%
    05:00 +11°C° 0 mm 1 m/S 734 mmHg 62%
    06:00 +11°C° 0 mm 1 m/S 734 mmHg 60%
    07:00 +12°C° 0 mm 1 m/S 735 mmHg 57%
    08:00 +14°C° 0 mm 1 m/S 735 mmHg 53%
    09:00 +15°C° 0 mm 1 m/S 736 mmHg 49%
    10:00 +16°C° 0 mm 1 m/S 736 mmHg 43%
    11:00 +19°C° 0 mm 1 m/S 736 mmHg 38%
    12:00 +20°C° 0 mm 1 m/S 736 mmHg 32%
    13:00 +20°C° 0 mm 1 m/S 736 mmHg 32%
    14:00 +21°C° 0 mm 1 m/S 735 mmHg 32%
    15:00 +21°C° 0 mm 1 m/S 735 mmHg 31%
    16:00 +19°C° 0 mm 1 m/S 735 mmHg 39%
    17:00 +16°C° 0 mm 1 m/S 735 mmHg 47%
    18:00 +14°C° 0 mm 1 m/S 735 mmHg 55%
    19:00 +13°C° 0 mm 1 m/S 735 mmHg 53%
    20:00 +13°C° 0 mm 1 m/S 735 mmHg 52%
    21:00 +13°C° 0 mm 1 m/S 736 mmHg 50%
    22:00 +13°C° 0 mm 1 m/S 736 mmHg 49%
    23:00 +12°C° 0 mm 2 m/S 736 mmHg 47%

    31 Januar, Freitag

    Zeit Temperatur Niederschläge Wind Luftdruck Luftfeuchtigkeit
    00:00 +12°C° 0 mm 2 m/S 736 mmHg 46%
    01:00 +12°C° 0 mm 2 m/S 736 mmHg 46%
    02:00 +12°C° 0 mm 2 m/S 736 mmHg 45%
    03:00 +12°C° 0 mm 2 m/S 736 mmHg 45%
    04:00 +12°C° 0 mm 2 m/S 736 mmHg 45%
    05:00 +12°C° 0 mm 2 m/S 736 mmHg 46%
    06:00 +12°C° 0 mm 2 m/S 735 mmHg 46%
    07:00 +13°C° 0 mm 2 m/S 736 mmHg 46%
    08:00 +14°C° 0 mm 2 m/S 736 mmHg 46%
    09:00 +15°C° 0 mm 2 m/S 737 mmHg 45%
    10:00 +18°C° 0 mm 1 m/S 737 mmHg 43%
    11:00 +19°C° 0 mm 1 m/S 737 mmHg 40%
    12:00 +20°C° 0 mm 1 m/S 736 mmHg 37%
    13:00 +21°C° 0 mm 1 m/S 736 mmHg 37%
    14:00 +21°C° 0 mm 1 m/S 736 mmHg 37%
    15:00 +22°C° 0 mm 1 m/S 735 mmHg 37%
    16:00 +20°C° 0 mm 1 m/S 735 mmHg 44%
    17:00 +18°C° 0 mm 1 m/S 735 mmHg 52%
    18:00 +15°C° 0 mm 1 m/S 735 mmHg 59%
    19:00 +14°C° 0 mm 1 m/S 735 mmHg 60%
    20:00 +14°C° 0 mm 1 m/S 735 mmHg 61%
    21:00 +13°C° 0 mm 0 m/S 735 mmHg 62%
    22:00 +12°C° 0 mm 0 m/S 735 mmHg 64%
    23:00 +12°C° 0 mm 0 m/S 735 mmHg 66%
    Mehr zeigen